Regional Weather Roundup
Issued by NWS

Home | Current Version | Previous Version | Graphics & Text | Print | Product List | Glossary On
Versions: 1 2 3 4 5 6 7 8 9 10 11 12 13 14 15 16 17 18 19 20 21 22 23 24 25 26 27 28 29 30 31 32 33 34 35 36 37 38 39 40 41 42 43 44 45 46 47 48 49 50
000
ASUS43 KDMX 260301
RWRIA

WEATHER ROUNDUP FOR IOWA
NATIONAL WEATHER SERVICE DES MOINES IA
1000 PM CDT TUE APR 25 2017

NOTE: "FAIR" INDICATES FEW OR NO CLOUDS BELOW 12,000 FEET WITH NO
SIGNIFICANT WEATHER AND/OR OBSTRUCTIONS TO VISIBILITY.

* - THESE STATIONS ARE NOT NWS STATIONS...THUS NOT UNDER NWS
QUALITY CONTROL.  THEY ALSO DO NOT REPORT WEATHER SUCH
AS PRECIPITATION OR FOG.

IAZ001>003-012>014-020>022-031>034-043>046-260400-
   NORTHWEST IOWA

CITY           SKY/WX    TMP DP  RH WIND       PRES   REMARKS
CARROLL *      LGT RAIN  45  45 100 NW18      29.54S
CHEROKEE *     RAIN      40  40 100 N14G20    29.59S WCI  32
DENISON *      HVY RAIN  43  41  93 N13G21    29.60R
LE MARS *      LGT RAIN  39  39 100 N15G21    29.64R WCI  31
ORANGE CITY *  LGT RAIN  39  37  93 N17G23    29.61S WCI  30
SHELDON *      LGT RAIN  39  37  93 N20       29.59S WCI  30
SIOUX CITY     LGT RAIN  40  39  97 N18       29.63R WCI  31
SPENCER        LGT RAIN  42  40  92 NW17      29.57S FOG
STORM LAKE *   LGT RAIN  41  41 100 NW16      29.57R
$$

IAZ055>058-069>071-079>083-090>094-260400-
   SOUTHWEST IOWA

CITY           SKY/WX    TMP DP  RH WIND       PRES   REMARKS
ATLANTIC *     LGT RAIN  45  45 100 N13G20    29.56R
AUDUBON *      RAIN      45  41  87 NW12G18   29.57R
CLARINDA *     CLOUDY    48  45  87 N14G24    29.56S
COUNCIL BLFS * MIX PCPN  43  43 100 NW17      29.58S
CRESTON *      CLOUDY    48  46  93 NW14G23   29.53R
HARLAN  *      LGT RAIN  45  45 100 N14G21    29.61R
LAMONI         CLOUDY    55  51  86 NW10      29.48R
RED OAK *      CLOUDY    46  43  87 N13G24    29.56S
SHENANDOAH *   CLOUDY    46  43  87 N12G18    29.57S
$$

IAZ047>049-059>061-072>074-084-260400-
   CENTRAL IOWA

CITY           SKY/WX    TMP DP  RH WIND       PRES   REMARKS
AMES           CLOUDY    52  50  93 NW15G21   29.47R
ANKENY *       CLOUDY    55  52  88 NW13      29.48R
BOONE *        CLOUDY    50  48  93 NW13G18   29.48R
CHARITON *     CLOUDY    63  54  72 NW12      29.46R
DES MOINES     LGT RAIN  53  49  86 NW16      29.48R
GRINNELL*      DRIZZLE   64  50  60 S6        29.46S
KNOXVILLE *    CLOUDY    64  54  68 W6        29.43S
MARSHALLTOWN   CLOUDY    62  54  74 CALM      29.43S
NEWTON *       CLOUDY    63  54  72 SW6       29.43S
PELLA *        CLOUDY    64  54  71 CALM      29.45F
PERRY *        DRIZZLE   47  45  91 NW15      29.52R
$$

IAZ004>006-015-016-023>025-035-036-260400-
   NORTH CENTRAL IOWA

CITY           SKY/WX    TMP DP  RH WIND       PRES   REMARKS
ALGONA *       LGT RAIN  46  46 100 N9G17     29.53R
CLARION *      CLOUDY    48  48 100 N12       29.49S
ESTHERVILLE    LGT RAIN  42  42 100 NW17      29.55S FOG
FORT DODGE *   CLOUDY    45  39  81 NW9       29.52S
MASON CITY     LGT RAIN  51  50  96 N14       29.49F
WEBSTER CITY * CLOUDY    48  46  93 N16       29.47R
IOWA FALLS *   CLOUDY    56  52  85 N10       29.47S
$$

IAZ007>011-017>019-026>030-037>042-050>054-066-260400-
   NORTHEAST IOWA

CITY           SKY/WX    TMP DP  RH WIND       PRES   REMARKS
CEDAR RAPIDS   LGT RAIN  66  51  58 CALM      29.44R
CHARLES CITY * CLOUDY    57  55  94 N10       29.46F
CLINTON *      CLOUDY    69  50  50 SE12      29.48F
DECORAH *      CLOUDY    61  52  72 N5        29.46F
DUBUQUE        CLOUDY    69  44  40 SE13      29.47F
MONTICELLO *   CLOUDY    70  45  40 SE10      29.44F
OELWEIN *      CLOUDY    63  52  67 E6        29.45F
WATERLOO       CLOUDY    62  52  69 E5        29.43S
$$

IAZ064-065-067-068-078-260400-
   EAST CENTRAL IOWA

CITY           SKY/WX    TMP DP  RH WIND       PRES   REMARKS
DAVENPORT      CLOUDY    69  50  50 SE12      29.47S
IOWA CITY      CLOUDY    68  50  52 S3        29.45S
MUSCATINE *    CLOUDY    72  48  43 SE9       29.44F
QUAD CITIES    CLOUDY    70  49  47 SE9       29.46S
$$

IAZ062-063-075>077-085>089-095>099-260400-
   SOUTHEAST IOWA

CITY           SKY/WX    TMP DP  RH WIND       PRES   REMARKS
BURLINGTON     MOCLDY    72  50  45 SE12      29.43F
FAIRFIELD *    CLOUDY    66  52  59 CALM      29.42F
FORT MADISON * CLOUDY    72  50  46 SE10      29.44S
KEOKUK *       MOCLDY    70  52  52 SE7       29.43R
OSKALOOSA *    MOCLDY    64  56  73 CALM      29.44F
OTTUMWA        CLOUDY    63  59  87 N3        29.44S
WASHINGTON *   CLOUDY    64  52  63 NW3       29.45S
$$

ABBREVIATIONS USED IN REMARKS
   TC - TEMPERATURES IN CELSIUS
  WCI - WIND CHILL INDEX
   HX - HEAT INDEX
  VSB - VISIBILITY
$$




USA.gov is the U.S. government's official web portal to all federal, state and local government web resources and services.